Location: Unspecified
(44.0704°N, 88.6889°W)
Time: 02:39:43
(UTC+01:00)

Okean 3 - Visible Passes

Search period start: 26 February 2018 00:00
Search period end: 08 March 2018 00:00
Orbit: 576 x 603 km, 82.5° (Epoch: 25 February)

Date Brightness Start Highest point End Pass type
(mag) Time Alt. Az. Time Alt. Az. Time Alt. Az.
26 Feb 5.2 01:43:02 10° NNW 01:46:52 35° W 01:50:40 10° SSW visible
27 Feb 6.0 01:51:30 10° NW 01:54:52 24° W 01:58:14 10° SW visible
27 Feb 6.8 12:43:41 10° ESE 12:46:03 15° E 12:48:25 10° NE visible
28 Feb 6.7 02:00:11 10° NW 02:02:51 17° W 02:05:30 10° SW visible
28 Feb 6.5 12:50:48 10° SE 12:54:00 21° E 12:57:13 10° NE visible
01 Mar 7.2 02:09:30 10° WNW 02:10:47 11° W 02:12:04 10° W visible
01 Mar 5.7 12:58:17 10° SSE 13:02:00 31° E 13:05:44 10° NNE visible
05 Mar 6.9 11:55:25 10° ESE 11:57:35 14° E 11:59:44 10° NE visible
06 Mar 6.4 12:02:27 10° SE 12:05:31 20° E 12:08:37 10° NE visible
07 Mar 7.1 01:20:41 10° WNW 01:22:19 12° W 01:23:57 10° WSW visible
07 Mar 5.6 12:09:53 10° SSE 12:13:31 29° E 12:17:10 10° NNE visible
